owner,sensor,date,latitude,longitude,relative_humidity,qcFlag 
DISL,ioos:station:DISL:PPTA:1,2016-11-01T00:00:00Z,30.2791,-87.5561,69.78,1111122 
DISL,ioos:station:DISL:PPTA:1,2016-11-01T00:30:00Z,30.2791,-87.5561,72.66,1111122 
DISL,ioos:station:DISL:PPTA:1,2016-11-01T01:00:00Z,30.2791,-87.5561,67.89,1111122 
DISL,ioos:station:DISL:PPTA:1,2016-11-01T01:30:00Z,30.2791,-87.5561,77.65,1111122 
DISL,ioos:station:DISL:PPTA:1,2016-11-01T02:00:00Z,30.2791,-87.5561,80.6,1111122 
DISL,ioos:station:DISL:PPTA:1,2016-11-01T02:30:00Z,30.2791,-87.5561,83.1,1111122 
DISL,ioos:station:DISL:PPTA:1,2016-11-01T03:00:00Z,30.2791,-87.5561,84.0,1111122 
DISL,ioos:station:DISL:PPTA:1,2016-11-01T03:30:00Z,30.2791,-87.5561,85.2,1111122 
DISL,ioos:station:DISL:PPTA:1,2016-11-01T04:00:00Z,30.2791,-87.5561,87.7,1111122 
DISL,ioos:station:DISL:PPTA:1,2016-11-01T04:30:00Z,30.2791,-87.5561,89.4,1111122 
DISL,ioos:station:DISL:PPTA:1,2016-11-01T05:00:00Z,30.2791,-87.5561,90.4,1111122 
DISL,ioos:station:DISL:PPTA:1,2016-11-01T05:30:00Z,30.2791,-87.5561,91.3,1111122 
DISL,ioos:station:DISL:PPTA:1,2016-11-01T06:00:00Z,30.2791,-87.5561,91.7,1111122 
DISL,ioos:station:DISL:PPTA:1,2016-11-01T06:30:00Z,30.2791,-87.5561,92.0,1111122 
DISL,ioos:station:DISL:PPTA:1,2016-11-01T07:00:00Z,30.2791,-87.5561,92.3,1111122 
DISL,ioos:station:DISL:PPTA:1,2016-11-01T07:30:00Z,30.2791,-87.5561,92.7,1111122 
DISL,ioos:station:DISL:PPTA:1,2016-11-01T08:00:00Z,30.2791,-87.5561,92.9,1111122 
DISL,ioos:station:DISL:PPTA:1,2016-11-01T08:30:00Z,30.2791,-87.5561,93.0,1111122 
DISL,ioos:station:DISL:PPTA:1,2016-11-01T09:00:00Z,30.2791,-87.5561,93.3,1111122 
DISL,ioos:station:DISL:PPTA:1,2016-11-01T09:30:00Z,30.2791,-87.5561,93.5,1111122 
DISL,ioos:station:DISL:PPTA:1,2016-11-01T10:00:00Z,30.2791,-87.5561,93.3,1111122 
DISL,ioos:station:DISL:PPTA:1,2016-11-01T10:30:00Z,30.2791,-87.5561,92.6,1111122 
DISL,ioos:station:DISL:PPTA:1,2016-11-01T11:00:00Z,30.2791,-87.5561,91.4,1111122 
DISL,ioos:station:DISL:PPTA:1,2016-11-01T11:30:00Z,30.2791,-87.5561,89.8,1111122 
DISL,ioos:station:DISL:PPTA:1,2016-11-01T12:00:00Z,30.2791,-87.5561,87.3,1111122 
DISL,ioos:station:DISL:PPTA:1,2016-11-01T12:30:00Z,30.2791,-87.5561,82.7,1111122 
DISL,ioos:station:DISL:PPTA:1,2016-11-01T13:00:00Z,30.2791,-87.5561,78.71,1111122 
DISL,ioos:station:DISL:PPTA:1,2016-11-01T13:30:00Z,30.2791,-87.5561,72.7,1111122 
DISL,ioos:station:DISL:PPTA:1,2016-11-01T14:00:00Z,30.2791,-87.5561,69.67,1111122 
DISL,ioos:station:DISL:PPTA:1,2016-11-01T14:30:00Z,30.2791,-87.5561,67.61,1111122 
DISL,ioos:station:DISL:PPTA:1,2016-11-01T15:00:00Z,30.2791,-87.5561,68.04,1111122 
DISL,ioos:station:DISL:PPTA:1,2016-11-01T15:30:00Z,30.2791,-87.5561,68.33,1111122 
DISL,ioos:station:DISL:PPTA:1,2016-11-01T16:00:00Z,30.2791,-87.5561,55.57,1111122 
DISL,ioos:station:DISL:PPTA:1,2016-11-01T16:30:00Z,30.2791,-87.5561,64.81,1111122 
DISL,ioos:station:DISL:PPTA:1,2016-11-01T17:00:00Z,30.2791,-87.5561,60.95,1111122 
DISL,ioos:station:DISL:PPTA:1,2016-11-01T17:30:00Z,30.2791,-87.5561,60.81,1111122 
DISL,ioos:station:DISL:PPTA:1,2016-11-01T18:00:00Z,30.2791,-87.5561,66.65,1111122 
DISL,ioos:station:DISL:PPTA:1,2016-11-01T18:30:00Z,30.2791,-87.5561,70.78,1111122 
DISL,ioos:station:DISL:PPTA:1,2016-11-01T19:00:00Z,30.2791,-87.5561,78.42,1111122 
DISL,ioos:station:DISL:PPTA:1,2016-11-01T19:30:00Z,30.2791,-87.5561,80.1,1111122 
DISL,ioos:station:DISL:PPTA:1,2016-11-01T20:00:00Z,30.2791,-87.5561,77.77,1111122 
DISL,ioos:station:DISL:PPTA:1,2016-11-01T20:30:00Z,30.2791,-87.5561,73.41,1111122 
DISL,ioos:station:DISL:PPTA:1,2016-11-01T21:00:00Z,30.2791,-87.5561,66.93,1111122 
DISL,ioos:station:DISL:PPTA:1,2016-11-01T21:30:00Z,30.2791,-87.5561,61.0,1111122 
DISL,ioos:station:DISL:PPTA:1,2016-11-01T22:00:00Z,30.2791,-87.5561,64.3,1111122 
DISL,ioos:station:DISL:PPTA:1,2016-11-01T22:30:00Z,30.2791,-87.5561,65.54,1111122 
DISL,ioos:station:DISL:PPTA:1,2016-11-01T23:00:00Z,30.2791,-87.5561,67.84,1111122 
DISL,ioos:station:DISL:PPTA:1,2016-11-01T23:30:00Z,30.2791,-87.5561,69.24,1111122 
DISL,ioos:station:DISL:PPTA:1,2016-11-02T00:00:00Z,30.2791,-87.5561,69.27,1111122 
DISL,ioos:station:DISL:PPTA:1,2016-11-02T00:30:00Z,30.2791,-87.5561,66.03,1111122 
DISL,ioos:station:DISL:PPTA:1,2016-11-02T01:00:00Z,30.2791,-87.5561,65.86,1111122 
DISL,ioos:station:DISL:PPTA:1,2016-11-02T01:30:00Z,30.2791,-87.5561,65.31,1111122 
DISL,ioos:station:DISL:PPTA:1,2016-11-02T02:00:00Z,30.2791,-87.5561,66.71,1111122 
DISL,ioos:station:DISL:PPTA:1,2016-11-02T02:30:00Z,30.2791,-87.5561,69.47,1111122 
DISL,ioos:station:DISL:PPTA:1,2016-11-02T03:00:00Z,30.2791,-87.5561,66.3,1111122 
DISL,ioos:station:DISL:PPTA:1,2016-11-02T03:30:00Z,30.2791,-87.5561,70.33,1111122 
DISL,ioos:station:DISL:PPTA:1,2016-11-02T04:00:00Z,30.2791,-87.5561,70.53,1111122 
DISL,ioos:station:DISL:PPTA:1,2016-11-02T04:30:00Z,30.2791,-87.5561,72.82,1111122 
DISL,ioos:station:DISL:PPTA:1,2016-11-02T05:00:00Z,30.2791,-87.5561,73.81,1111122 
DISL,ioos:station:DISL:PPTA:1,2016-11-02T05:30:00Z,30.2791,-87.5561,74.62,1111122 
DISL,ioos:station:DISL:PPTA:1,2016-11-02T06:00:00Z,30.2791,-87.5561,73.43,1111122 
DISL,ioos:station:DISL:PPTA:1,2016-11-02T06:30:00Z,30.2791,-87.5561,73.19,1111122 
DISL,ioos:station:DISL:PPTA:1,2016-11-02T07:00:00Z,30.2791,-87.5561,74.15,1111122 
DISL,ioos:station:DISL:PPTA:1,2016-11-02T07:30:00Z,30.2791,-87.5561,74.9,1111122 
DISL,ioos:station:DISL:PPTA:1,2016-11-02T08:00:00Z,30.2791,-87.5561,80.9,1111122 
DISL,ioos:station:DISL:PPTA:1,2016-11-02T08:30:00Z,30.2791,-87.5561,87.0,1111122 
DISL,ioos:station:DISL:PPTA:1,2016-11-02T09:00:00Z,30.2791,-87.5561,88.4,1111122 
DISL,ioos:station:DISL:PPTA:1,2016-11-02T09:30:00Z,30.2791,-87.5561,86.5,1111122 
DISL,ioos:station:DISL:PPTA:1,2016-11-02T10:00:00Z,30.2791,-87.5561,85.3,1111122 
DISL,ioos:station:DISL:PPTA:1,2016-11-02T10:30:00Z,30.2791,-87.5561,86.4,1111122 
DISL,ioos:station:DISL:PPTA:1,2016-11-02T11:00:00Z,30.2791,-87.5561,86.5,1111122 
DISL,ioos:station:DISL:PPTA:1,2016-11-02T11:30:00Z,30.2791,-87.5561,87.5,1111122 
DISL,ioos:station:DISL:PPTA:1,2016-11-02T12:00:00Z,30.2791,-87.5561,87.3,1111122 
DISL,ioos:station:DISL:PPTA:1,2016-11-02T12:30:00Z,30.2791,-87.5561,87.8,1111122 
DISL,ioos:station:DISL:PPTA:1,2016-11-02T13:00:00Z,30.2791,-87.5561,87.7,1111122 
DISL,ioos:station:DISL:PPTA:1,2016-11-02T13:30:00Z,30.2791,-87.5561,87.8,1111122 
DISL,ioos:station:DISL:PPTA:1,2016-11-02T14:00:00Z,30.2791,-87.5561,85.7,1111122 
DISL,ioos:station:DISL:PPTA:1,2016-11-02T14:30:00Z,30.2791,-87.5561,83.7,1111122 
DISL,ioos:station:DISL:PPTA:1,2016-11-02T15:00:00Z,30.2791,-87.5561,84.3,1111122 
DISL,ioos:station:DISL:PPTA:1,2016-11-02T15:30:00Z,30.2791,-87.5561,83.4,1111122 
DISL,ioos:station:DISL:PPTA:1,2016-11-02T16:00:00Z,30.2791,-87.5561,82.9,1111122 
DISL,ioos:station:DISL:PPTA:1,2016-11-02T16:30:00Z,30.2791,-87.5561,82.9,1111122 
DISL,ioos:station:DISL:PPTA:1,2016-11-02T17:00:00Z,30.2791,-87.5561,81.5,1111122 
DISL,ioos:station:DISL:PPTA:1,2016-11-02T17:30:00Z,30.2791,-87.5561,81.9,1111122 
DISL,ioos:station:DISL:PPTA:1,2016-11-02T18:00:00Z,30.2791,-87.5561,85.3,1111122 
DISL,ioos:station:DISL:PPTA:1,2016-11-02T18:30:00Z,30.2791,-87.5561,84.3,1111122 
DISL,ioos:station:DISL:PPTA:1,2016-11-02T19:00:00Z,30.2791,-87.5561,83.6,1111122 
DISL,ioos:station:DISL:PPTA:1,2016-11-02T19:30:00Z,30.2791,-87.5561,84.8,1111122 
DISL,ioos:station:DISL:PPTA:1,2016-11-02T20:00:00Z,30.2791,-87.5561,84.4,1111122 
DISL,ioos:station:DISL:PPTA:1,2016-11-02T20:30:00Z,30.2791,-87.5561,83.5,1111122 
DISL,ioos:station:DISL:PPTA:1,2016-11-02T21:00:00Z,30.2791,-87.5561,81.6,1111122 
DISL,ioos:station:DISL:PPTA:1,2016-11-02T21:30:00Z,30.2791,-87.5561,81.2,1111122 
DISL,ioos:station:DISL:PPTA:1,2016-11-02T22:00:00Z,30.2791,-87.5561,80.5,1111122 
DISL,ioos:station:DISL:PPTA:1,2016-11-02T22:30:00Z,30.2791,-87.5561,83.4,1111122 
DISL,ioos:station:DISL:PPTA:1,2016-11-02T23:00:00Z,30.2791,-87.5561,80.2,1111122 
DISL,ioos:station:DISL:PPTA:1,2016-11-02T23:30:00Z,30.2791,-87.5561,78.85,1111122 
DISL,ioos:station:DISL:PPTA:1,2016-11-03T00:00:00Z,30.2791,-87.5561,80.2,1111122 
DISL,ioos:station:DISL:PPTA:1,2016-11-03T00:30:00Z,30.2791,-87.5561,80.0,1111122 
DISL,ioos:station:DISL:PPTA:1,2016-11-03T01:00:00Z,30.2791,-87.5561,86.6,1111122 
DISL,ioos:station:DISL:PPTA:1,2016-11-03T01:30:00Z,30.2791,-87.5561,89.0,1111122 
DISL,ioos:station:DISL:PPTA:1,2016-11-03T02:00:00Z,30.2791,-87.5561,90.5,1111122 
DISL,ioos:station:DISL:PPTA:1,2016-11-03T02:30:00Z,30.2791,-87.5561,91.2,1111122 
DISL,ioos:station:DISL:PPTA:1,2016-11-03T03:00:00Z,30.2791,-87.5561,91.7,1111122 
DISL,ioos:station:DISL:PPTA:1,2016-11-03T03:30:00Z,30.2791,-87.5561,91.7,1111122 
DISL,ioos:station:DISL:PPTA:1,2016-11-03T04:00:00Z,30.2791,-87.5561,91.7,1111122 
DISL,ioos:station:DISL:PPTA:1,2016-11-03T04:30:00Z,30.2791,-87.5561,91.8,1111122 
DISL,ioos:station:DISL:PPTA:1,2016-11-03T05:00:00Z,30.2791,-87.5561,89.3,1111122 
DISL,ioos:station:DISL:PPTA:1,2016-11-03T05:30:00Z,30.2791,-87.5561,88.8,1111122 
DISL,ioos:station:DISL:PPTA:1,2016-11-03T06:00:00Z,30.2791,-87.5561,88.0,1111122 
DISL,ioos:station:DISL:PPTA:1,2016-11-03T06:30:00Z,30.2791,-87.5561,86.8,1111122 
DISL,ioos:station:DISL:PPTA:1,2016-11-03T07:00:00Z,30.2791,-87.5561,86.8,1111122 
DISL,ioos:station:DISL:PPTA:1,2016-11-03T07:30:00Z,30.2791,-87.5561,87.2,1111122 
DISL,ioos:station:DISL:PPTA:1,2016-11-03T08:00:00Z,30.2791,-87.5561,87.6,1111122 
DISL,ioos:station:DISL:PPTA:1,2016-11-03T08:30:00Z,30.2791,-87.5561,88.4,1111122 
DISL,ioos:station:DISL:PPTA:1,2016-11-03T09:00:00Z,30.2791,-87.5561,89.3,1111122 
DISL,ioos:station:DISL:PPTA:1,2016-11-03T09:30:00Z,30.2791,-87.5561,89.0,1111122 
DISL,ioos:station:DISL:PPTA:1,2016-11-03T10:00:00Z,30.2791,-87.5561,87.8,1111122 
DISL,ioos:station:DISL:PPTA:1,2016-11-03T10:30:00Z,30.2791,-87.5561,85.3,1111122 
DISL,ioos:station:DISL:PPTA:1,2016-11-03T11:00:00Z,30.2791,-87.5561,83.4,1111122 
DISL,ioos:station:DISL:PPTA:1,2016-11-03T11:30:00Z,30.2791,-87.5561,82.1,1111122 
DISL,ioos:station:DISL:PPTA:1,2016-11-03T12:00:00Z,30.2791,-87.5561,81.3,1111122 
DISL,ioos:station:DISL:PPTA:1,2016-11-03T12:30:00Z,30.2791,-87.5561,79.83,1111122 
DISL,ioos:station:DISL:PPTA:1,2016-11-03T13:00:00Z,30.2791,-87.5561,79.56,1111122 
DISL,ioos:station:DISL:PPTA:1,2016-11-03T13:30:00Z,30.2791,-87.5561,74.73,1111122 
DISL,ioos:station:DISL:PPTA:1,2016-11-03T14:00:00Z,30.2791,-87.5561,77.28,1111122 
DISL,ioos:station:DISL:PPTA:1,2016-11-03T14:30:00Z,30.2791,-87.5561,76.5,1111122 
DISL,ioos:station:DISL:PPTA:1,2016-11-03T15:00:00Z,30.2791,-87.5561,76.66,1111122 
DISL,ioos:station:DISL:PPTA:1,2016-11-03T15:30:00Z,30.2791,-87.5561,76.1,1111122 
DISL,ioos:station:DISL:PPTA:1,2016-11-03T16:00:00Z,30.2791,-87.5561,78.05,1111122 
DISL,ioos:station:DISL:PPTA:1,2016-11-03T16:30:00Z,30.2791,-87.5561,76.55,1111122 
DISL,ioos:station:DISL:PPTA:1,2016-11-03T17:00:00Z,30.2791,-87.5561,76.51,1111122 
DISL,ioos:station:DISL:PPTA:1,2016-11-03T17:30:00Z,30.2791,-87.5561,79.03,1111122 
DISL,ioos:station:DISL:PPTA:1,2016-11-03T18:00:00Z,30.2791,-87.5561,83.9,1111122 
DISL,ioos:station:DISL:PPTA:1,2016-11-03T18:30:00Z,30.2791,-87.5561,84.7,1111122 
DISL,ioos:station:DISL:PPTA:1,2016-11-03T19:00:00Z,30.2791,-87.5561,81.2,1111122 
DISL,ioos:station:DISL:PPTA:1,2016-11-03T19:30:00Z,30.2791,-87.5561,74.64,1111122 
DISL,ioos:station:DISL:PPTA:1,2016-11-03T20:00:00Z,30.2791,-87.5561,71.0,1111122 
DISL,ioos:station:DISL:PPTA:1,2016-11-03T20:30:00Z,30.2791,-87.5561,71.98,1111122 
DISL,ioos:station:DISL:PPTA:1,2016-11-03T21:00:00Z,30.2791,-87.5561,70.05,1111122 
DISL,ioos:station:DISL:PPTA:1,2016-11-03T21:30:00Z,30.2791,-87.5561,72.52,1111122 
DISL,ioos:station:DISL:PPTA:1,2016-11-03T22:00:00Z,30.2791,-87.5561,73.2,1111122 
DISL,ioos:station:DISL:PPTA:1,2016-11-03T22:30:00Z,30.2791,-87.5561,72.79,1111122 
DISL,ioos:station:DISL:PPTA:1,2016-11-03T23:00:00Z,30.2791,-87.5561,73.1,1111122 
DISL,ioos:station:DISL:PPTA:1,2016-11-03T23:30:00Z,30.2791,-87.5561,73.81,1111122 
DISL,ioos:station:DISL:PPTA:1,2016-11-04T00:00:00Z,30.2791,-87.5561,76.67,1111122 
DISL,ioos:station:DISL:PPTA:1,2016-11-04T00:30:00Z,30.2791,-87.5561,78.72,1111122 
DISL,ioos:station:DISL:PPTA:1,2016-11-04T01:00:00Z,30.2791,-87.5561,80.5,1111122 
DISL,ioos:station:DISL:PPTA:1,2016-11-04T01:30:00Z,30.2791,-87.5561,83.7,1111122 
DISL,ioos:station:DISL:PPTA:1,2016-11-04T02:00:00Z,30.2791,-87.5561,84.9,1111122 
DISL,ioos:station:DISL:PPTA:1,2016-11-04T02:30:00Z,30.2791,-87.5561,86.4,1111122 
DISL,ioos:station:DISL:PPTA:1,2016-11-04T03:00:00Z,30.2791,-87.5561,88.4,1111122 
DISL,ioos:station:DISL:PPTA:1,2016-11-04T03:30:00Z,30.2791,-87.5561,90.0,1111122 
DISL,ioos:station:DISL:PPTA:1,2016-11-04T04:00:00Z,30.2791,-87.5561,90.8,1111122 
DISL,ioos:station:DISL:PPTA:1,2016-11-04T04:30:00Z,30.2791,-87.5561,91.3,1111122 
DISL,ioos:station:DISL:PPTA:1,2016-11-04T05:00:00Z,30.2791,-87.5561,92.1,1111122 
DISL,ioos:station:DISL:PPTA:1,2016-11-04T05:30:00Z,30.2791,-87.5561,93.0,1111122 
DISL,ioos:station:DISL:PPTA:1,2016-11-04T06:00:00Z,30.2791,-87.5561,93.8,1111122 
DISL,ioos:station:DISL:PPTA:1,2016-11-04T06:30:00Z,30.2791,-87.5561,94.4,1111122 
DISL,ioos:station:DISL:PPTA:1,2016-11-04T07:00:00Z,30.2791,-87.5561,95.0,1111122 
DISL,ioos:station:DISL:PPTA:1,2016-11-04T07:30:00Z,30.2791,-87.5561,95.7,1111122 
DISL,ioos:station:DISL:PPTA:1,2016-11-04T08:00:00Z,30.2791,-87.5561,95.5,1111122 
DISL,ioos:station:DISL:PPTA:1,2016-11-04T08:30:00Z,30.2791,-87.5561,92.5,1111122 
DISL,ioos:station:DISL:PPTA:1,2016-11-04T09:00:00Z,30.2791,-87.5561,89.9,1111122 
DISL,ioos:station:DISL:PPTA:1,2016-11-04T09:30:00Z,30.2791,-87.5561,88.0,1111122 
DISL,ioos:station:DISL:PPTA:1,2016-11-04T10:00:00Z,30.2791,-87.5561,88.6,1111122 
DISL,ioos:station:DISL:PPTA:1,2016-11-04T10:30:00Z,30.2791,-87.5561,88.3,1111122 
DISL,ioos:station:DISL:PPTA:1,2016-11-04T11:00:00Z,30.2791,-87.5561,86.4,1111122 
DISL,ioos:station:DISL:PPTA:1,2016-11-04T11:30:00Z,30.2791,-87.5561,86.6,1111122 
DISL,ioos:station:DISL:PPTA:1,2016-11-04T12:00:00Z,30.2791,-87.5561,85.3,1111122 
DISL,ioos:station:DISL:PPTA:1,2016-11-04T12:30:00Z,30.2791,-87.5561,85.6,1111122 
DISL,ioos:station:DISL:PPTA:1,2016-11-04T13:00:00Z,30.2791,-87.5561,82.6,1111122 
DISL,ioos:station:DISL:PPTA:1,2016-11-04T13:30:00Z,30.2791,-87.5561,75.64,1111122 
DISL,ioos:station:DISL:PPTA:1,2016-11-04T14:00:00Z,30.2791,-87.5561,70.55,1111122 
DISL,ioos:station:DISL:PPTA:1,2016-11-04T14:30:00Z,30.2791,-87.5561,67.36,1111122 
DISL,ioos:station:DISL:PPTA:1,2016-11-04T15:00:00Z,30.2791,-87.5561,63.96,1111122 
DISL,ioos:station:DISL:PPTA:1,2016-11-04T15:30:00Z,30.2791,-87.5561,62.76,1111122 
DISL,ioos:station:DISL:PPTA:1,2016-11-04T16:00:00Z,30.2791,-87.5561,56.51,1111122 
DISL,ioos:station:DISL:PPTA:1,2016-11-04T16:30:00Z,30.2791,-87.5561,54.62,1111122 
DISL,ioos:station:DISL:PPTA:1,2016-11-04T17:00:00Z,30.2791,-87.5561,51.72,1111122 
DISL,ioos:station:DISL:PPTA:1,2016-11-04T17:30:00Z,30.2791,-87.5561,48.72,1111122 
DISL,ioos:station:DISL:PPTA:1,2016-11-04T18:00:00Z,30.2791,-87.5561,48.25,1111122 
DISL,ioos:station:DISL:PPTA:1,2016-11-04T18:30:00Z,30.2791,-87.5561,65.76,1111122 
DISL,ioos:station:DISL:PPTA:1,2016-11-04T19:00:00Z,30.2791,-87.5561,60.1,1111122 
DISL,ioos:station:DISL:PPTA:1,2016-11-04T19:30:00Z,30.2791,-87.5561,51.96,1111122 
DISL,ioos:station:DISL:PPTA:1,2016-11-04T20:00:00Z,30.2791,-87.5561,49.34,1111122 
DISL,ioos:station:DISL:PPTA:1,2016-11-04T20:30:00Z,30.2791,-87.5561,48.16,1111122 
DISL,ioos:station:DISL:PPTA:1,2016-11-04T21:00:00Z,30.2791,-87.5561,49.76,1111122 
DISL,ioos:station:DISL:PPTA:1,2016-11-04T21:30:00Z,30.2791,-87.5561,48.88,1111122 
DISL,ioos:station:DISL:PPTA:1,2016-11-04T22:00:00Z,30.2791,-87.5561,47.03,1111122 
DISL,ioos:station:DISL:PPTA:1,2016-11-04T22:30:00Z,30.2791,-87.5561,47.75,1111122 
DISL,ioos:station:DISL:PPTA:1,2016-11-04T23:00:00Z,30.2791,-87.5561,51.53,1111122 
DISL,ioos:station:DISL:PPTA:1,2016-11-04T23:30:00Z,30.2791,-87.5561,55.84,1111122 
DISL,ioos:station:DISL:PPTA:1,2016-11-05T00:00:00Z,30.2791,-87.5561,56.7,1111122 
DISL,ioos:station:DISL:PPTA:1,2016-11-05T00:30:00Z,30.2791,-87.5561,59.74,1111122 
DISL,ioos:station:DISL:PPTA:1,2016-11-05T01:00:00Z,30.2791,-87.5561,64.36,1111122 
DISL,ioos:station:DISL:PPTA:1,2016-11-05T01:30:00Z,30.2791,-87.5561,62.35,1111122 
DISL,ioos:station:DISL:PPTA:1,2016-11-05T02:00:00Z,30.2791,-87.5561,58.32,1111122 
DISL,ioos:station:DISL:PPTA:1,2016-11-05T02:30:00Z,30.2791,-87.5561,55.47,1111122 
DISL,ioos:station:DISL:PPTA:1,2016-11-05T03:00:00Z,30.2791,-87.5561,53.63,1111122 
DISL,ioos:station:DISL:PPTA:1,2016-11-05T03:30:00Z,30.2791,-87.5561,53.33,1111122 
DISL,ioos:station:DISL:PPTA:1,2016-11-05T04:00:00Z,30.2791,-87.5561,55.03,1111122 
DISL,ioos:station:DISL:PPTA:1,2016-11-05T04:30:00Z,30.2791,-87.5561,54.08,1111122 
DISL,ioos:station:DISL:PPTA:1,2016-11-05T05:00:00Z,30.2791,-87.5561,52.45,1111122 
DISL,ioos:station:DISL:PPTA:1,2016-11-05T05:30:00Z,30.2791,-87.5561,53.96,1111122 
DISL,ioos:station:DISL:PPTA:1,2016-11-05T06:00:00Z,30.2791,-87.5561,54.16,1111122 
DISL,ioos:station:DISL:PPTA:1,2016-11-05T06:30:00Z,30.2791,-87.5561,59.35,1111122 
DISL,ioos:station:DISL:PPTA:1,2016-11-05T07:00:00Z,30.2791,-87.5561,58.5,1111122 
DISL,ioos:station:DISL:PPTA:1,2016-11-05T07:30:00Z,30.2791,-87.5561,54.2,1111122 
DISL,ioos:station:DISL:PPTA:1,2016-11-05T08:00:00Z,30.2791,-87.5561,57.75,1111122 
DISL,ioos:station:DISL:PPTA:1,2016-11-05T08:30:00Z,30.2791,-87.5561,50.79,1111122 
DISL,ioos:station:DISL:PPTA:1,2016-11-05T09:00:00Z,30.2791,-87.5561,59.36,1111122 
DISL,ioos:station:DISL:PPTA:1,2016-11-05T09:30:00Z,30.2791,-87.5561,62.03,1111122 
DISL,ioos:station:DISL:PPTA:1,2016-11-05T10:00:00Z,30.2791,-87.5561,61.38,1111122 
DISL,ioos:station:DISL:PPTA:1,2016-11-05T10:30:00Z,30.2791,-87.5561,64.28,1111122 
DISL,ioos:station:DISL:PPTA:1,2016-11-05T11:00:00Z,30.2791,-87.5561,66.53,1111122 
DISL,ioos:station:DISL:PPTA:1,2016-11-05T11:30:00Z,30.2791,-87.5561,72.1,1111122 
DISL,ioos:station:DISL:PPTA:1,2016-11-05T12:00:00Z,30.2791,-87.5561,74.82,1111122 
DISL,ioos:station:DISL:PPTA:1,2016-11-05T12:30:00Z,30.2791,-87.5561,77.38,1111122 
DISL,ioos:station:DISL:PPTA:1,2016-11-05T13:00:00Z,30.2791,-87.5561,79.18,1111122 
DISL,ioos:station:DISL:PPTA:1,2016-11-05T13:30:00Z,30.2791,-87.5561,82.2,1111122 
DISL,ioos:station:DISL:PPTA:1,2016-11-05T14:00:00Z,30.2791,-87.5561,79.14,1111122 
DISL,ioos:station:DISL:PPTA:1,2016-11-05T14:30:00Z,30.2791,-87.5561,80.8,1111122 
DISL,ioos:station:DISL:PPTA:1,2016-11-05T15:00:00Z,30.2791,-87.5561,76.66,1111122 
DISL,ioos:station:DISL:PPTA:1,2016-11-05T15:30:00Z,30.2791,-87.5561,76.79,1111122 
DISL,ioos:station:DISL:PPTA:1,2016-11-05T16:00:00Z,30.2791,-87.5561,63.85,1111122 
DISL,ioos:station:DISL:PPTA:1,2016-11-05T16:30:00Z,30.2791,-87.5561,62.21,1111122 
DISL,ioos:station:DISL:PPTA:1,2016-11-05T17:00:00Z,30.2791,-87.5561,63.17,1111122 
DISL,ioos:station:DISL:PPTA:1,2016-11-05T17:30:00Z,30.2791,-87.5561,64.56,1111122 
DISL,ioos:station:DISL:PPTA:1,2016-11-05T18:00:00Z,30.2791,-87.5561,62.04,1111122 
DISL,ioos:station:DISL:PPTA:1,2016-11-05T18:30:00Z,30.2791,-87.5561,56.62,1111122 
DISL,ioos:station:DISL:PPTA:1,2016-11-05T19:00:00Z,30.2791,-87.5561,49.62,1111122 
DISL,ioos:station:DISL:PPTA:1,2016-11-05T19:30:00Z,30.2791,-87.5561,50.38,1111122 
DISL,ioos:station:DISL:PPTA:1,2016-11-05T20:00:00Z,30.2791,-87.5561,48.26,1111122 
DISL,ioos:station:DISL:PPTA:1,2016-11-05T20:30:00Z,30.2791,-87.5561,44.24,1111122 
DISL,ioos:station:DISL:PPTA:1,2016-11-05T21:00:00Z,30.2791,-87.5561,47.11,1111122 
DISL,ioos:station:DISL:PPTA:1,2016-11-05T21:30:00Z,30.2791,-87.5561,46.64,1111122 
DISL,ioos:station:DISL:PPTA:1,2016-11-05T22:00:00Z,30.2791,-87.5561,46.26,1111122 
DISL,ioos:station:DISL:PPTA:1,2016-11-05T22:30:00Z,30.2791,-87.5561,43.91,1111122 
DISL,ioos:station:DISL:PPTA:1,2016-11-05T23:00:00Z,30.2791,-87.5561,45.14,1111122 
DISL,ioos:station:DISL:PPTA:1,2016-11-05T23:30:00Z,30.2791,-87.5561,45.58,1111122 
DISL,ioos:station:DISL:PPTA:1,2016-11-06T00:00:00Z,30.2791,-87.5561,45.89,1111122 
DISL,ioos:station:DISL:PPTA:1,2016-11-06T00:30:00Z,30.2791,-87.5561,58.24,1111122 
DISL,ioos:station:DISL:PPTA:1,2016-11-06T01:00:00Z,30.2791,-87.5561,66.94,1111122 
DISL,ioos:station:DISL:PPTA:1,2016-11-06T01:30:00Z,30.2791,-87.5561,57.26,1111122 
DISL,ioos:station:DISL:PPTA:1,2016-11-06T02:00:00Z,30.2791,-87.5561,56.27,1111122 
DISL,ioos:station:DISL:PPTA:1,2016-11-06T02:30:00Z,30.2791,-87.5561,55.04,1111122 
DISL,ioos:station:DISL:PPTA:1,2016-11-06T03:00:00Z,30.2791,-87.5561,52.65,1111122 
DISL,ioos:station:DISL:PPTA:1,2016-11-06T03:30:00Z,30.2791,-87.5561,52.21,1111122 
DISL,ioos:station:DISL:PPTA:1,2016-11-06T04:00:00Z,30.2791,-87.5561,55.28,1111122 
DISL,ioos:station:DISL:PPTA:1,2016-11-06T04:30:00Z,30.2791,-87.5561,53.54,1111122 
DISL,ioos:station:DISL:PPTA:1,2016-11-06T05:00:00Z,30.2791,-87.5561,50.27,1111122 
DISL,ioos:station:DISL:PPTA:1,2016-11-06T05:30:00Z,30.2791,-87.5561,46.14,1111122 
DISL,ioos:station:DISL:PPTA:1,2016-11-06T06:00:00Z,30.2791,-87.5561,64.43,1111122 
DISL,ioos:station:DISL:PPTA:1,2016-11-06T06:30:00Z,30.2791,-87.5561,63.89,1111122 
DISL,ioos:station:DISL:PPTA:1,2016-11-06T07:00:00Z,30.2791,-87.5561,55.9,1111122 
DISL,ioos:station:DISL:PPTA:1,2016-11-06T07:30:00Z,30.2791,-87.5561,59.8,1111122 
DISL,ioos:station:DISL:PPTA:1,2016-11-06T08:00:00Z,30.2791,-87.5561,50.96,1111122 
DISL,ioos:station:DISL:PPTA:1,2016-11-06T08:30:00Z,30.2791,-87.5561,51.77,1111122 
DISL,ioos:station:DISL:PPTA:1,2016-11-06T09:00:00Z,30.2791,-87.5561,56.45,1111122 
DISL,ioos:station:DISL:PPTA:1,2016-11-06T09:30:00Z,30.2791,-87.5561,61.54,1111122 
DISL,ioos:station:DISL:PPTA:1,2016-11-06T10:00:00Z,30.2791,-87.5561,65.49,1111122 
DISL,ioos:station:DISL:PPTA:1,2016-11-06T10:30:00Z,30.2791,-87.5561,58.87,1111122 
DISL,ioos:station:DISL:PPTA:1,2016-11-06T11:00:00Z,30.2791,-87.5561,66.69,1111122 
DISL,ioos:station:DISL:PPTA:1,2016-11-06T11:30:00Z,30.2791,-87.5561,69.4,1111122 
DISL,ioos:station:DISL:PPTA:1,2016-11-06T12:00:00Z,30.2791,-87.5561,67.53,1111122 
DISL,ioos:station:DISL:PPTA:1,2016-11-06T12:30:00Z,30.2791,-87.5561,62.27,1111122 
DISL,ioos:station:DISL:PPTA:1,2016-11-06T13:00:00Z,30.2791,-87.5561,66.58,1111122 
DISL,ioos:station:DISL:PPTA:1,2016-11-06T13:30:00Z,30.2791,-87.5561,50.08,1111122 
DISL,ioos:station:DISL:PPTA:1,2016-11-06T14:00:00Z,30.2791,-87.5561,59.62,1111122 
DISL,ioos:station:DISL:PPTA:1,2016-11-06T14:30:00Z,30.2791,-87.5561,54.9,1111122 
DISL,ioos:station:DISL:PPTA:1,2016-11-06T15:00:00Z,30.2791,-87.5561,51.14,1111122 
DISL,ioos:station:DISL:PPTA:1,2016-11-06T15:30:00Z,30.2791,-87.5561,42.37,1111122 
DISL,ioos:station:DISL:PPTA:1,2016-11-06T16:00:00Z,30.2791,-87.5561,42.33,1111122 
DISL,ioos:station:DISL:PPTA:1,2016-11-06T16:30:00Z,30.2791,-87.5561,40.55,1111122 
DISL,ioos:station:DISL:PPTA:1,2016-11-06T17:00:00Z,30.2791,-87.5561,45.67,1111122 
DISL,ioos:station:DISL:PPTA:1,2016-11-06T17:30:00Z,30.2791,-87.5561,45.4,1111122 
DISL,ioos:station:DISL:PPTA:1,2016-11-06T18:00:00Z,30.2791,-87.5561,45.82,1111122 
DISL,ioos:station:DISL:PPTA:1,2016-11-06T18:30:00Z,30.2791,-87.5561,48.31,1111122 
DISL,ioos:station:DISL:PPTA:1,2016-11-06T19:00:00Z,30.2791,-87.5561,49.51,1111122 
DISL,ioos:station:DISL:PPTA:1,2016-11-06T19:30:00Z,30.2791,-87.5561,52.78,1111122 
DISL,ioos:station:DISL:PPTA:1,2016-11-06T20:00:00Z,30.2791,-87.5561,52.78,1111122 
DISL,ioos:station:DISL:PPTA:1,2016-11-06T20:30:00Z,30.2791,-87.5561,54.38,1111122 
DISL,ioos:station:DISL:PPTA:1,2016-11-06T21:00:00Z,30.2791,-87.5561,50.47,1111122 
DISL,ioos:station:DISL:PPTA:1,2016-11-06T21:30:00Z,30.2791,-87.5561,47.19,1111122 
DISL,ioos:station:DISL:PPTA:1,2016-11-06T22:00:00Z,30.2791,-87.5561,48.36,1111122 
DISL,ioos:station:DISL:PPTA:1,2016-11-06T22:30:00Z,30.2791,-87.5561,53.04,1111122 
DISL,ioos:station:DISL:PPTA:1,2016-11-06T23:00:00Z,30.2791,-87.5561,53.96,1111122 
DISL,ioos:station:DISL:PPTA:1,2016-11-06T23:30:00Z,30.2791,-87.5561,65.87,1111122 
DISL,ioos:station:DISL:PPTA:1,2016-11-07T00:00:00Z,30.2791,-87.5561,68.33,1111122 